Location: Geçitköy
(36.7327°N, 29.8010°E)
Time: 19:56:14
(UTC+00:00)

Meteor 2-13 Rocket - Pass Details

Date: 12 January 2026
Orbit: 935 x 958 km, 82.5° (Epoch: 10 February)

Event Time Altitude Azimuth Distance (km) Brightness Sun altitude
Rises 16:33:06 0° 186° (S) 3,616 7.8 -17.3°
Reaches altitude 10° 16:35:35 10° 187° (S) 2,676 7.1 -17.8°
Maximum altitude 16:41:44 86° 275° (W) 965 4.5 -19.0°
Drops below altitude 10° 16:47:55 10° 6° (N) 2,695 6.6 -20.2°
Sets 16:50:26 0° 7° (N) 3,644 7.3 -20.7°
